Regional Weather Roundup
Issued by NWS Goodland, KS

Home | Current Version | Previous Version | Graphics & Text | Print | Product List | Glossary On
Versions: 1 2 3 4 5 6 7 8 9 10 11 12 13 14 15 16 17 18 19 20 21 22 23 24 25 26 27 28 29 30 31 32 33 34 35 36 37 38 39 40 41 42 43 44 45 46 47 48 49 50
000
ASUS43 KGLD 241859
RWRGLD

GOODLAND FORECAST AREA HOURLY WEATHER ROUNDUP
NATIONAL WEATHER SERVICE GOODLAND KS
100 PM MDT MON JUL 24 2017

...OFFICIAL OBSERVATIONS...

CITY           SKY/WX    TMP DP  RH WIND       PRES   REMARKS
GOODLAND KS    SUNNY     91  61  36 S17G25    30.02F
HILL CITY KS   SUNNY     97  62  31 S8        29.97F
IMPERIAL NEB   SUNNY     96  54  24 S16G25    29.96F
MCCOOK NEB     SUNNY     97  55  24 S17       29.95F
AKRON CO       SUNNY     93  52  24 S20G25    30.03F
BURLINGTON CO  SUNNY     91  59  33 S17G25    30.05F
LIMON CO       SUNNY     87  50  27 S14G21    30.11F
$$

...UNOFFICIAL OBSERVATIONS...

CITY           SKY/WX    TMP DP  RH WIND       PRES   REMARKS
LENORA KS        N/A     92  32  12 MISG        N/A
NORTON KS      SUNNY     95  50  21 S15       29.97F
SHARON SPRINGS   N/A     92  65  41 SE10G20     N/A
TRENTON NEB      N/A     99  32   9 SW12        N/A
KIT CARSON CO    N/A     89  58  35 MISG        N/A
YUMA CO        FAIR      91  36  14 S15G22    30.00F
$$




USA.gov is the U.S. government's official web portal to all federal, state and local government web resources and services.